Погода Чулпаново

Поиск расширенной информации на нашем сайте:

Полезная информация:

Новости сайта



02.01.2020
Опубликован Долгосрочный прогноз погоды по городам России и ближнего зарубежья на январь 2020 года.
Карты: Прогноз на январь и февраль 2020 года, Сравнение прогнозируемой аномалии приземной температуры воздуха на январь 2020 года по разным моделям.




Погода Чулпаново - сегодня

Время (UTC), дата Ветер
(°,м/с) 
Видим.   Явления Облачность Т
(°С)
Тd
(°С)
f(%) Тe
(°С)
Pmin
(гПа)
dP
(гПа)
Po
(мм)
O2
(г/м3)
Тmin Tmax R s Состояние
почвы
15 24.02.21 290 (З) 4{12}  20000 м    4/0 верхняя 
[Ci fib]
-21.2 -27.6 56 -27  1034.2  0.8  768  337    -20.2       
18 24.02.21 290 (З) 20000 м    ясно 
-23.7 -28.1 67 -27  1035.1  0.8  768  341           
21 24.02.21 190 (Ю) 20000 м    1/0 верхняя 
[Ci fib]
-30.7 -34 73 -34  1034.5  -0.9  768  350           
00 25.02.21 250 (З) 20000 м    ясно 
-30.4 -33.9 71 -34  1034.7  -0.1  768  350           
03 25.02.21 270 (З) 20000 м    1/0 верхняя 
[Ci fib]
-32.5 -36.4 68 -33  1034.1  -0.7  767  353  -32.9      33  неравномерный
сухой снег
100% 
06 25.02.21 030 (СВ) 20000 м    10/0 средняя, верхняя 
[Ac trans|Ci sp]
-28.2 -31.8 71 -29  1032.4  -1.5  766  346  -34.2         
09 25.02.21 130 (ЮВ) 20000 м    10/0 средняя 
[Ac As]
-20.9 -24.9 70 -25  1029.4  -2.6  764  335           
12 25.02.21 140 (ЮВ) 4{10}  10 км  слаб. снег  10/0 средняя 
[As op]
-18.3 -22.3 71 -24  1026.2  -3.1  762  331           
15 25.02.21 160 (Ю) 5{12}  2000 м  снег  10/0 средняя 
[As op]
-18.6 -21.3 79 -25  1023.5  -2.7  760  330    -18.1  0.7     
18 25.02.21 140 (ЮВ) 7-11{15}  4000 м  слаб. снег  10/0 средняя 
[As op]
-18.5 -21.4 78 -26  1021.1  -2.3  758  329           
21 25.02.21 130 (ЮВ) 6{11}  4000 м  слаб. снег  10/0 средняя 
[As op]
-18.1 -21 78 -25  1019.5  -1.6  757  328           
00 26.02.21 140 (ЮВ) 7-10{11}  4000 м  слаб. снег  10/0 средняя 
[As op]
-17.1 -20.1 77 -24  1018  -1.4  756  326           
03 26.02.21 130 (ЮВ) 5{11}  4000 м  слаб. снег  10/0 средняя 
[As op]
-16.7 -19.6 78 -23  1017.9  -0.1  756  326  -18.6    0.7  33  неравномерный
сухой снег
100% 
06 26.02.21 120 (ЮВ) 20000 м  {снег}  3/0 верхняя 
[Ci fib]
-16.3 -20 73 -20  1018.4  0.5  756  326           
09 26.02.21 050 (СВ) 20000 м    10/0 средняя, верхняя 
[Ac trans|Ci fib]
-14.2 -18.4 70 -20  1018.1  -0.2  756  323           
12 26.02.21 150 (ЮВ) 6-11{11}  20000 м  позёмок  10/0 средняя 
[Ac As]
-13.9 -17.6 74 -20  1016.4  -1.6  755  322           
15 26.02.21 160 (Ю) 7-10{13}  20000 м  позёмок{снег}  10/0 средняя 
[Ac As]
-13.9 -17 77 -21  1013.9  -2.5  753  321    -13.3  0.0     
18 26.02.21 150 (ЮВ) 6{11}  2000 м  снег  10/0 средняя 
[As op]
-14.2 -16.4 83 -20  1009.5  -4.4  749  320           
21 26.02.21 150 (ЮВ) 7-12{14}  1000 м  снег  10/0 средняя 
[As op]
-13.7 -15.6 86 -20  1004  -5.3  745  318           
00 27.02.21 150 (ЮВ) 5{12}  4000 м  слаб. снег  10/0 средняя 
[As op]
-12.2 -14.1 86 -17  1000.3  -3.6  743  315           
03 27.02.21 150 (ЮВ) 4000 м  слаб. снег  10/0 средняя 
[As op]
-10.5 -12.2 87 -15  997.5  -2.7  741  311  -14.4    41  неравномерный
сухой снег
100% 
06 27.02.21 140 (ЮВ) 2000 м  снег  10/0 средняя 
[As op]
-8 -9.5 89 -11  996.3  -1  740  308           
09 27.02.21 030 (СВ) 4000 м  слаб. снег  10/0 средняя 
[As op]
-3.6 -5.1 89 -5  995.5  -0.7  739  302           
12 27.02.21 350 (С) 2000 м  снег  10/0 средняя 
[As op]
-1.6 -2.5 94 -3  995.7  0.3  740  300           
15 27.02.21 300 (СЗ) 10 км  слаб. снег  10/0 средняя 
[As op]
-8.4 -10.4 85 -13  999.2  3.1  742  309    -1.3     
Время (UTC), дата Ветер
(°,м/с) 
Видим.   Явления Облачность Т
(°С)
Тd
(°С)
f(%) Тe
(°С)
Pmin
(гПа)
dP
(гПа)
Po
(мм)
O2
(г/м3)
Тmin Tmax R s Состояние
почвы

Для получения пояснительной информации подведите курсор к названию столбца.

ПОГОДА Чулпаново - архив

Всё, что Вы хотите узнать о погоде Чулпаново - удобно и подробно!

Выберите нужную дату (начиная с 1 января 2019* года) и нажмите кнопку "Найти".
Будут отображены архивные сводки погоды по пункту Чулпаново, начиная с указанной даты.


Отображать данные в формате CSV (для использования в таблицах Excel)


Внимание! Наш архив погоды предназначен исключительно для личного некоммерческого использования в познавательных целях. Если Вам необходимы официальные справки о состоянии погоды (для производственных, юридических, коммерческих и т.п. целей), обращайтесь в органы Росгидромета.

*Примечание: данная дата относится к архиву по метеостанциям СССР (Россия, СНГ, Балтия).
Архив по метеостанциям Зарубежной Европы и Азии (кроме Китая) хранится 10 дней, по другим регионам земного шара (Китай, Африка, Америка, Австралия, Океания) - 1 день.

Чулпаново - район местоположения метеостанции


Название, широта, долгота, высота метеостанции:
Чулпаново 54.5°ш. 50.4°д. 78 м над ур. моря [Российская Федерация]

Дополнительная информация

В oтличие oт бoльшинства пoгoдных сайтoв мы публикуем пoдрoбную метеoинфoрмацию в детальнoм прoфессиoнальнoм фoрмате.

Характеристики температуры и влажнoсти вoздуха измеряются на высoте 2 м в тени вдали oт зданий и деревьев.
Скoрoсть ветра измеряется на высoте 10 м (на урoвне рoста челoвека скoрoсть ветра ниже в 1.5-2 раза). Если метеoстанция нахoдится в гoрoде или в лесу, тo скoрoсть ветра занижена на 2-4 м/с пo сравнению с oткрытым местoм. Скoрoсть ветра над акватoриями крупных рек и oзёр, а также на вершинах хoлмoв на 2-5 м/с выше, чем в oбычных услoвиях.
Атмoсфернoе давление в разных тoчках местнoсти мoжет значительнo oтличаться oт давления на метеoстанции, в зависимoсти oт услoвий рельефа (при пoдъёме на 10 м давление пoнижается примернo на 1 мм рт.ст.).